TimeCDT,TemperatureF,Dew PointF,Humidity,Sea Level PressureIn,VisibilityMPH,Wind Direction,Wind SpeedMPH,Gust SpeedMPH,PrecipitationIn,Events,Conditions,WindDirDegrees,DateUTC
12:53 AM,46.9,25.0,42,30.23,10.0,West,3.5,-,N/A,,Clear,280,2012-09-13 05:53:00
1:53 AM,42.1,26.1,53,30.24,10.0,West,6.9,-,N/A,,Clear,260,2012-09-13 06:53:00
2:53 AM,45.0,25.0,46,30.25,10.0,Calm,Calm,-,N/A,,Clear,0,2012-09-13 07:53:00
3:53 AM,39.0,26.1,60,30.27,10.0,Calm,Calm,-,N/A,,Clear,0,2012-09-13 08:53:00
4:53 AM,39.0,27.0,62,30.28,10.0,Calm,Calm,-,N/A,,Clear,0,2012-09-13 09:53:00
5:53 AM,36.0,28.0,73,30.30,10.0,Calm,Calm,-,N/A,,Clear,0,2012-09-13 10:53:00
6:53 AM,33.1,26.1,75,30.32,10.0,Calm,Calm,-,N/A,,Clear,0,2012-09-13 11:53:00
7:53 AM,37.0,30.0,76,30.32,10.0,West,3.5,-,N/A,,Clear,270,2012-09-13 12:53:00
8:53 AM,48.0,30.9,52,30.32,10.0,Calm,Calm,-,N/A,,Clear,0,2012-09-13 13:53:00
9:53 AM,55.9,32.0,40,30.32,10.0,West,3.5,-,N/A,,Clear,260,2012-09-13 14:53:00
10:53 AM,62.1,28.9,29,30.33,10.0,WNW,6.9,-,N/A,,Clear,290,2012-09-13 15:53:00
11:53 AM,66.0,25.0,21,30.32,10.0,NW,10.4,-,N/A,,Clear,310,2012-09-13 16:53:00
12:53 PM,66.9,23.0,19,30.31,10.0,NW,10.4,26.5,N/A,,Clear,310,2012-09-13 17:53:00
1:53 PM,69.1,23.0,18,30.30,10.0,West,10.4,24.2,N/A,,Clear,280,2012-09-13 18:53:00
2:53 PM,69.1,23.0,18,30.28,10.0,West,8.1,19.6,N/A,,Clear,280,2012-09-13 19:53:00
3:53 PM,69.1,23.0,18,30.27,10.0,West,12.7,19.6,N/A,,Partly Cloudy,270,2012-09-13 20:53:00
4:53 PM,68.0,23.0,18,30.28,10.0,West,9.2,19.6,N/A,,Clear,280,2012-09-13 21:53:00
5:53 PM,66.9,23.0,19,30.28,10.0,WNW,6.9,-,N/A,,Mostly Cloudy,300,2012-09-13 22:53:00
6:53 PM,64.0,28.0,26,30.29,10.0,North,6.9,-,N/A,,Overcast,10,2012-09-13 23:53:00
7:53 PM,63.0,28.0,27,30.30,10.0,NNE,10.4,-,N/A,,Overcast,20,2012-09-14 00:53:00
8:53 PM,61.0,30.9,32,30.33,10.0,North,13.8,-,N/A,,Overcast,360,2012-09-14 01:53:00
9:53 PM,59.0,32.0,36,30.34,10.0,North,11.5,17.3,N/A,,Overcast,10,2012-09-14 02:53:00
10:53 PM,57.0,32.0,39,30.32,10.0,Calm,Calm,-,N/A,,Overcast,0,2012-09-14 03:53:00
11:53 PM,54.0,33.1,45,30.32,10.0,Calm,Calm,-,N/A,,Clear,0,2012-09-14 04:53:00